Theta_e
343 342 340 339 340 340 340 341 338 338 339 335 331 333 335 332 328 331 332 329 329 329 327 327 327 328 330 330 333 335 335 336 336 336 335 337 339 337 335 334 334 334 332 332 334 336 336 335 334 332 332 332 333 334 332 331 330 329 328 328 327 326 324 323 321 322 323 324 325 326 327 329 329 329 330 330 330 330 330 330 330 330 330 330 330
343 343 341 340 340 340 340 341 340 339 340 336 332 334 335 332 331 332 331 330 329 328 327 328 328 328 329 330 333 334 335 336 335 335 334 337 340 337 335 335 334 333 332 333 335 336 336 334 333 333 332 332 333 333 332 331 329 329 328 326 325 322 321 321 322 325 326 327 327 327 327 329 329 329 329 329 329 329 329 329 329 329 329 329 329
343 343 341 340 341 340 339 340 340 339 340 338 334 334 334 331 332 332 331 330 329 326 327 329 329 328 329 330 334 335 335 336 335 335 335 337 339 336 335 335 333 333 332 334 335 336 335 333 333 332 332 332 333 333 332 331 329 329 326 324 323 320 321 324 326 328 328 328 328 327 327 328 328 328 328 328 328 328 328 328 328 328 328 329 329
343 342 340 339 340 340 339 340 340 340 340 340 337 335 335 333 332 332 331 329 328 329 330 331 330 328 326 329 336 337 336 336 334 335 335 337 338 336 335 335 333 333 334 335 336 335 334 333 333 332 332 332 332 332 332 330 329 327 324 324 323 321 324 327 328 328 327 327 327 327 327 327 327 327 327 327 327 326 326 326 327 327 327 327 327
343 342 340 339 340 339 339 339 339 340 341 341 339 337 336 336 335 334 333 330 331 333 332 332 330 329 329 331 336 338 337 336 335 335 335 335 336 336 336 335 333 334 335 336 335 335 334 333 332 332 332 332 332 331 331 330 329 324 323 326 325 323 325 326 326 326 326 325 325 325 325 325 325 325 325 325 325 325 324 324 324 325 325 325 325
343 343 341 340 340 339 339 339 338 339 341 341 341 340 339 338 338 336 334 333 333 333 331 330 330 330 333 334 336 337 338 337 336 336 335 335 336 336 337 337 335 335 336 336 336 335 334 333 333 332 331 332 331 330 330 329 325 321 322 326 325 324 326 326 325 325 324 323 323 323 323 324 324 323 323 323 323 322 322 322 322 322 322 323 323
341 341 340 340 339 339 339 338 338 338 340 341 340 342 341 339 338 337 335 333 332 330 328 330 330 331 334 337 337 338 339 337 337 337 335 334 336 337 338 339 338 336 336 336 335 335 333 333 333 332 332 331 330 329 327 325 323 322 324 325 324 325 325 325 324 323 322 321 321 320 319 321 323 323 321 320 321 322 322 321 320 320 320 321 321
338 338 338 339 338 338 338 338 338 338 339 341 341 342 342 340 337 337 335 332 330 329 328 331 331 331 335 337 339 340 339 338 337 337 334 334 336 337 338 339 339 338 338 336 335 334 333 333 333 332 331 330 329 327 322 321 322 322 324 325 324 325 325 324 322 320 320 318 317 316 316 318 320 320 319 320 321 321 320 319 319 318 318 319 319
336 336 336 337 337 337 338 337 338 339 339 341 341 341 341 338 335 335 334 332 331 330 329 331 331 332 336 339 341 340 339 337 336 335 333 334 336 336 337 338 339 338 338 337 335 333 333 333 332 331 329 328 326 323 318 315 317 320 323 324 324 324 324 322 320 317 317 317 316 317 317 317 319 319 319 320 320 320 319 318 318 317 317 317 317
336 336 336 336 336 338 338 337 338 339 339 340 342 341 340 337 336 336 334 332 333 333 331 332 332 333 338 341 341 340 338 336 336 335 333 333 335 336 336 337 338 337 337 337 335 333 332 333 331 329 327 326 323 321 317 313 317 323 325 325 324 324 323 320 318 317 317 318 317 318 318 318 319 319 319 319 319 319 318 318 317 317 317 317 316
337 336 336 335 336 338 339 338 337 339 339 340 341 341 339 338 338 337 334 333 333 334 334 333 333 335 340 342 342 340 338 337 337 336 333 333 335 336 337 337 336 336 336 337 336 333 332 331 330 327 325 323 322 321 318 314 320 325 325 325 324 323 321 319 317 317 317 317 317 317 317 317 318 318 318 318 318 317 317 316 316 316 316 316 316
337 337 336 335 336 338 339 338 338 339 339 340 341 341 339 338 339 338 335 334 333 334 334 333 335 339 342 342 341 340 338 337 337 336 334 333 335 336 337 337 336 335 335 336 335 333 332 331 329 328 326 323 322 322 320 315 319 325 325 324 324 322 319 318 317 316 315 316 316 316 316 316 316 316 317 317 317 316 316 315 315 315 316 315 315
338 338 337 335 336 338 339 339 338 338 338 340 341 340 338 338 340 339 337 336 334 334 333 333 338 342 343 342 340 340 339 338 337 336 335 334 334 335 336 337 337 336 335 335 334 333 332 331 330 329 327 324 323 322 321 316 316 322 325 324 323 321 319 317 317 316 315 315 315 315 315 315 315 315 315 315 315 315 315 315 314 314 315 314 314
339 339 338 336 337 338 340 340 338 337 338 339 339 339 339 339 340 340 339 339 337 335 333 334 339 343 343 343 342 341 340 338 338 337 335 334 334 336 336 337 337 336 336 335 334 333 332 331 330 330 328 326 323 321 320 317 314 319 324 324 322 321 319 318 317 316 315 315 314 314 314 314 314 314 314 314 314 314 314 314 314 314 314 314 314
339 339 339 338 337 338 339 339 339 339 338 338 339 339 340 340 340 340 340 340 340 338 335 333 336 340 343 343 343 343 342 339 338 337 336 335 335 336 337 337 337 336 335 335 334 332 331 330 329 329 328 326 324 322 320 319 316 317 320 322 322 321 320 319 318 317 316 315 314 313 313 313 313 313 313 313 313 313 313 314 314 313 313 313 313
340 339 340 339 338 339 340 339 338 339 339 338 339 339 339 340 340 340 340 340 340 338 336 334 334 339 343 343 343 342 342 341 339 337 336 337 336 336 338 338 337 336 334 333 333 331 330 330 328 327 327 326 324 323 321 320 318 317 319 321 321 321 320 319 318 317 316 315 315 313 312 312 312 312 312 312 312 312 312 312 313 313 313 313 312
340 340 340 340 339 339 340 340 339 339 340 339 339 339 339 339 339 339 339 340 339 336 336 337 335 338 341 342 344 343 342 341 340 338 337 337 337 337 337 337 337 337 334 332 331 331 330 329 328 327 326 325 323 323 321 321 320 319 319 320 320 320 320 319 318 318 316 316 315 313 312 311 311 311 311 311 311 311 311 311 311 312 312 312 312
340 340 340 341 340 340 341 340 340 340 341 340 340 340 339 339 338 338 338 339 338 337 338 340 339 339 339 340 343 343 341 339 340 340 337 336 336 336 336 336 336 336 335 333 331 330 330 328 327 327 325 324 323 322 321 320 319 318 317 318 319 319 318 318 318 318 317 316 315 313 312 311 311 311 310 311 310 310 310 310 310 310 311 311 311
340 340 340 340 341 341 341 340 340 340 340 341 341 340 339 338 338 338 338 338 338 338 339 341 342 341 340 340 340 339 339 338 340 342 339 336 336 335 335 335 335 335 335 334 332 330 330 328 327 326 325 324 323 321 319 318 317 316 312 314 318 318 317 317 317 317 317 316 315 313 312 311 311 310 310 310 310 310 310 309 308 308 310 310 310
340 340 340 340 341 341 341 341 341 341 341 341 342 341 339 339 338 338 337 337 337 337 339 340 342 341 341 341 340 339 339 339 337 339 340 339 337 334 334 334 334 334 334 334 332 331 330 328 327 326 325 324 322 320 319 318 318 315 308 309 316 317 316 316 316 315 315 314 314 314 312 311 310 310 309 309 310 309 308 307 307 307 308 309 309
340 340 339 340 341 342 343 343 342 342 342 342 342 341 340 339 338 338 337 337 337 336 338 339 340 340 340 340 340 340 340 340 338 337 338 340 339 336 334 333 333 333 333 334 332 331 329 328 327 326 324 323 322 321 319 317 318 316 308 305 309 313 315 315 314 314 314 314 313 313 312 311 310 310 309 309 309 308 307 306 307 307 307 308 308
340 340 340 340 341 342 344 344 343 343 342 342 342 341 341 340 339 338 338 338 337 337 337 338 339 339 339 340 340 340 339 338 338 337 338 338 338 337 334 333 333 333 333 333 332 331 330 329 327 325 324 323 322 321 320 318 317 316 310 304 305 310 313 313 313 313 313 313 312 312 312 311 310 309 309 308 308 308 307 306 306 306 306 307 308
340 339 340 341 342 343 344 344 344 344 342 342 342 342 341 340 340 339 338 338 338 338 337 338 339 338 339 338 339 340 338 337 337 336 337 337 338 338 335 333 332 333 333 333 331 331 330 329 328 325 324 323 322 320 319 318 317 316 312 305 303 307 310 311 311 311 311 310 310 311 311 311 310 309 308 308 307 307 306 306 305 306 305 305 306
340 340 340 341 342 343 344 345 345 344 343 342 342 342 341 340 340 339 339 339 339 339 338 338 339 338 338 337 337 339 338 336 336 336 336 337 337 337 335 333 333 333 332 331 330 330 329 329 328 326 324 323 321 319 318 318 316 315 312 306 303 305 307 308 309 309 308 307 306 308 310 310 310 310 309 308 307 306 306 305 305 305 305 305 304
341 341 341 342 343 344 344 345 345 344 343 342 342 341 341 341 340 339 339 339 339 339 339 338 339 338 338 338 338 339 337 335 333 333 335 335 335 335 335 333 332 332 331 329 329 328 328 328 328 326 325 323 321 319 319 318 317 315 313 309 304 303 304 304 305 305 305 304 303 304 307 309 309 309 309 309 308 307 306 306 305 305 304 303 302
341 342 341 342 344 344 344 345 345 344 343 342 342 342 341 341 340 339 339 339 339 339 339 338 338 339 339 337 337 337 337 335 332 331 332 334 334 335 335 333 331 330 329 329 328 327 327 327 327 326 325 323 321 319 319 319 317 316 314 312 307 305 306 304 303 303 304 304 305 304 305 307 308 308 308 309 309 308 307 306 304 304 303 301 299
342 342 343 344 345 345 345 345 345 344 343 342 342 342 341 341 339 339 339 338 338 339 339 339 339 339 339 338 337 336 336 335 334 333 332 333 334 334 335 334 333 331 329 329 328 326 326 326 326 326 325 323 321 319 319 318 318 316 315 313 310 309 310 307 305 305 305 306 306 306 306 306 306 306 307 309 309 309 308 307 304 303 302 300 296
343 343 344 345 346 346 346 346 345 344 343 342 342 342 342 341 341 340 339 338 339 339 340 340 340 339 339 339 337 336 336 334 334 334 332 332 334 334 333 334 334 333 331 331 328 325 325 325 326 325 323 323 321 320 319 318 318 317 315 313 312 312 312 310 308 307 307 307 307 307 307 306 306 305 306 308 309 309 309 307 304 302 300 298 294
344 344 345 346 346 346 345 346 345 344 343 343 343 343 343 343 342 342 341 340 340 340 340 339 339 339 338 339 338 336 335 332 332 335 334 333 334 334 333 332 333 334 334 333 331 326 323 325 325 323 322 322 321 320 320 319 318 318 316 314 314 313 313 312 310 309 309 308 307 307 307 307 307 306 307 309 309 309 308 307 304 300 297 296 294
345 345 346 346 346 346 346 345 345 344 343 343 343 343 343 343 342 342 342 342 341 340 340 338 338 338 337 337 337 337 334 330 332 336 334 333 334 333 332 331 331 332 333 334 333 327 322 323 323 322 321 321 321 320 320 319 319 318 316 315 314 314 314 313 312 311 310 309 309 308 308 308 307 306 307 308 309 308 308 307 305 299 295 295 295
345 345 346 346 346 346 345 345 345 344 343 343 343 343 342 342 341 341 341 341 341 341 339 337 336 337 335 333 334 336 335 332 333 335 332 332 333 331 331 331 330 329 329 331 334 329 323 322 322 320 321 321 321 320 320 320 319 318 317 315 314 314 315 314 313 312 311 310 310 309 309 308 308 307 306 306 307 308 308 307 304 298 295 296 295
346 345 346 346 346 346 345 345 344 343 343 342 342 342 341 341 341 341 341 340 340 340 339 335 334 336 334 332 334 335 335 334 334 334 332 331 331 331 331 330 329 329 328 328 332 330 324 323 323 321 320 321 321 321 320 320 319 317 317 316 315 314 315 314 313 313 312 310 310 310 309 309 307 307 306 304 304 307 308 307 303 297 295 296 295
346 346 346 347 347 346 345 344 344 343 342 341 341 341 340 340 340 340 340 340 340 340 338 335 332 333 334 334 334 335 334 334 334 333 332 331 331 331 330 329 328 329 328 327 330 330 326 324 323 321 320 321 321 321 320 319 318 318 317 316 314 314 314 314 313 313 312 311 311 310 309 308 307 307 306 303 301 303 306 306 301 297 296 297 296
346 346 347 347 347 346 345 344 343 343 342 341 341 341 341 340 340 340 339 340 340 339 338 336 332 331 334 334 332 333 333 333 333 333 331 329 329 329 328 328 328 328 327 327 328 328 327 324 322 321 321 321 321 320 320 319 318 318 317 315 314 313 314 314 313 313 312 311 311 310 308 307 306 306 305 302 300 301 303 303 299 296 297 297 296
345 346 346 346 345 345 344 343 342 342 341 341 341 341 341 340 340 340 340 340 340 339 337 336 333 332 333 332 331 332 332 332 331 330 328 327 328 328 327 327 327 327 327 327 327 327 327 324 322 321 320 320 320 319 319 318 318 318 316 314 314 314 314 314 313 313 312 311 310 309 307 306 306 306 303 301 301 301 302 301 297 297 298 297 297
346 346 346 346 345 344 344 343 342 341 341 341 341 341 341 341 340 340 340 339 339 339 337 336 334 333 333 332 331 331 331 330 329 327 326 327 327 326 326 326 327 327 327 326 326 326 326 325 324 322 320 319 319 319 319 319 319 318 316 314 314 315 314 314 313 312 312 311 310 308 307 307 306 304 301 300 302 302 301 300 298 298 299 298 297
346 346 346 345 344 344 344 343 342 342 341 341 341 341 341 341 340 340 339 339 338 338 337 336 335 334 333 332 331 329 330 329 327 326 326 325 325 325 325 325 325 326 327 326 326 325 326 326 324 322 320 319 319 319 319 319 318 317 316 315 314 315 314 313 313 312 311 311 310 308 307 306 306 305 301 300 302 302 301 300 300 300 299 297 297
346 346 345 344 343 344 343 342 342 342 341 341 341 341 341 340 340 339 339 338 338 337 337 336 335 333 332 331 330 329 328 326 325 326 326 324 323 323 322 322 324 325 325 325 325 325 325 324 323 320 319 319 319 318 318 318 317 316 316 315 314 314 314 313 313 312 311 311 310 309 308 308 307 306 302 300 300 300 300 300 300 299 297 296 296
345 345 344 343 343 343 343 342 341 341 341 341 340 340 340 339 339 338 338 338 337 335 335 334 333 331 330 330 329 328 327 325 325 326 325 323 322 321 320 320 321 323 324 323 324 324 324 324 322 320 319 319 319 318 317 317 316 315 316 315 314 314 313 313 313 313 312 311 310 309 309 308 307 304 301 300 299 298 298 298 297 297 296 296 296
344 344 344 343 342 342 342 341 341 340 340 340 340 340 339 339 338 338 337 337 335 333 332 332 332 331 329 328 327 327 326 326 326 326 324 322 321 320 320 319 319 320 320 320 320 321 321 322 322 320 319 318 318 317 317 316 315 315 315 314 314 314 313 312 312 312 312 311 310 310 309 308 308 305 303 303 301 299 299 299 297 297 298 297 297
344 344 344 343 342 341 341 341 341 340 341 340 340 339 339 338 338 337 336 335 333 332 330 330 330 329 328 327 326 326 325 325 326 324 322 321 320 319 319 319 318 317 318 318 319 319 320 321 321 320 319 318 317 317 316 316 315 314 314 314 313 313 313 313 312 312 312 311 309 309 309 308 307 305 305 306 304 301 301 302 301 299 299 298 298
344 344 343 343 342 341 341 341 341 340 340 340 339 339 338 337 336 335 334 333 332 330 329 328 328 327 326 325 325 324 324 323 322 321 320 319 320 319 319 318 316 317 318 319 319 319 320 320 321 320 319 318 318 317 316 315 315 314 314 314 314 312 312 312 312 312 311 310 307 307 308 308 306 304 305 307 306 303 302 304 304 301 300 299 299
344 343 342 342 342 341 341 341 341 340 339 338 338 337 336 336 334 333 332 331 331 330 328 327 327 326 325 324 322 322 322 321 320 319 319 320 320 319 319 317 316 317 318 319 319 319 319 320 320 320 319 319 318 317 316 315 315 315 314 314 313 312 311 312 312 310 309 309 307 306 308 309 306 303 304 307 307 304 303 304 304 302 300 299 300
342 341 341 341 341 342 341 340 340 339 338 337 336 335 334 334 332 331 330 330 330 329 327 327 326 325 324 322 321 320 321 320 320 319 319 320 319 318 318 317 316 316 318 318 318 318 318 319 320 320 319 319 318 317 317 316 315 314 313 313 313 312 312 313 311 308 307 307 306 305 307 308 305 303 304 307 306 304 304 304 304 302 300 300 300
339 339 339 338 339 340 340 339 339 338 337 336 335 334 333 332 331 330 329 330 329 328 326 326 325 324 323 322 321 320 319 319 319 319 319 319 318 317 317 317 315 314 316 317 316 316 316 317 319 318 317 317 316 315 316 315 314 313 312 312 311 311 311 310 309 307 305 305 305 305 306 307 305 304 305 306 306 305 304 304 304 302 300 300 302
337 337 338 338 338 339 339 338 337 336 336 334 333 332 331 330 330 330 329 329 328 327 327 325 324 324 323 322 321 320 318 318 318 318 317 317 316 316 315 315 314 313 314 315 315 315 316 317 318 317 315 315 313 312 313 313 312 312 310 309 310 310 309 308 306 304 301 302 304 305 305 305 305 305 304 304 304 304 304 304 304 302 300 301 303
336 337 338 339 338 339 339 337 336 335 334 332 331 330 329 330 329 329 328 328 327 327 326 325 324 323 323 322 322 321 319 318 318 318 316 315 315 315 315 315 315 314 313 314 314 314 315 315 315 315 314 313 312 311 311 311 311 311 311 310 310 309 308 306 304 302 301 302 304 304 304 304 304 304 304 304 304 303 303 303 304 302 302 303 303
336 336 337 338 338 339 338 336 335 334 332 330 329 328 328 328 328 328 328 327 327 326 325 325 324 323 323 322 322 322 321 320 319 318 317 316 316 315 315 315 315 314 313 312 312 313 314 314 313 312 312 311 311 310 309 309 310 310 309 309 308 307 306 305 304 303 303 303 302 303 304 303 302 302 302 302 303 302 301 302 303 303 303 303 303
335 335 336 337 338 338 337 336 334 332 331 329 328 327 327 327 328 329 328 327 326 325 325 324 324 323 323 323 322 322 321 320 319 319 317 317 316 316 316 315 313 312 311 310 310 311 311 311 311 310 310 309 309 309 308 306 306 306 305 306 306 306 305 306 306 305 303 302 301 302 304 302 300 301 301 300 301 301 301 302 302 302 303 303 302
334 335 336 337 338 338 336 335 333 332 330 329 327 326 327 327 328 328 327 326 326 325 325 324 323 323 323 322 321 321 320 319 319 317 315 315 316 317 316 314 312 311 308 307 308 308 308 308 308 306 306 306 305 306 306 304 304 305 305 306 306 305 305 306 306 305 303 301 300 301 302 301 300 300 301 301 301 301 301 300 300 300 300 301 301
334 335 337 338 337 336 335 334 333 332 330 328 326 326 326 327 328 328 327 326 325 325 325 323 322 322 320 319 319 318 318 317 314 310 310 314 316 317 316 314 312 310 308 306 305 304 303 303 302 301 302 302 303 304 304 304 305 306 306 306 305 304 304 305 305 306 304 301 299 299 300 301 301 301 301 301 301 301 300 299 299 299 299 300 301
Wind_Speed
18 18 17 16 17 16 14 13 12 13 16 12 12 15 13 12 13 14 13 12 12 11 9 8 9 7 8 7 2 7 4 4 5 4 4 2 3 2 1 2 2 2 5 6 6 5 4 5 5 6 6 6 6 6 7 7 7 8 8 8 9 10 10 10 9 9 9 8 8 8 8 8 8 8 8 8 8 8 8 8 8 7 7 8 8
19 19 17 16 17 17 15 14 13 13 14 12 12 14 13 13 13 12 12 12 11 10 9 8 8 8 9 4 5 6 4 5 4 3 4 4 6 3 1 1 2 5 6 7 6 5 4 5 6 6 7 6 6 6 7 7 7 8 8 8 9 10 10 10 9 9 9 8 8 8 8 8 9 9 9 9 9 9 9 9 9 9 9 9 10
18 19 18 17 18 17 16 15 14 14 12 10 12 13 13 14 13 12 13 12 11 10 9 7 8 10 9 1 7 5 4 3 2 3 4 3 8 2 2 2 4 7 8 7 6 5 5 5 6 7 7 6 6 7 7 6 7 8 8 9 10 11 11 9 8 8 8 8 8 8 9 9 9 9 9 9 9 8 8 8 7 7 7 8 8
17 18 18 18 17 15 16 15 14 14 12 10 12 12 12 13 13 13 12 13 12 9 8 7 7 8 9 4 10 10 6 3 3 5 4 3 7 3 4 6 7 8 8 8 6 6 5 5 6 7 7 6 6 6 6 6 6 8 9 8 9 11 9 7 6 6 7 7 8 8 9 8 9 9 8 8 9 8 9 8 7 6 6 6 6
19 19 19 18 17 17 17 16 14 13 12 12 12 12 13 12 13 13 12 13 12 8 7 7 7 7 7 0 9 8 5 3 3 4 4 2 6 4 5 7 8 9 9 8 6 6 5 5 5 6 6 6 6 6 6 5 6 8 8 7 8 9 7 5 6 6 7 7 8 9 9 8 8 8 8 8 9 9 10 9 8 8 7 7 7
21 18 20 20 20 20 18 16 15 14 13 15 14 11 13 13 12 13 12 12 11 9 8 8 8 7 4 2 3 4 3 2 1 2 3 2 6 6 6 7 9 10 9 8 6 6 5 5 5 5 7 6 6 5 5 5 7 8 8 6 6 7 5 5 6 6 7 8 8 9 9 9 9 8 8 9 10 10 10 9 10 10 9 9 10
21 16 20 20 17 19 18 14 15 15 14 15 16 13 12 14 13 13 14 13 13 12 11 10 10 7 2 4 1 3 3 3 1 2 1 3 7 7 8 9 9 9 9 9 7 6 5 4 4 5 7 7 6 5 6 5 6 7 7 6 5 5 5 6 6 6 8 8 9 9 8 8 7 7 8 10 10 9 9 10 11 11 11 11 11
21 14 19 19 14 16 17 15 14 16 16 15 17 17 15 15 15 14 15 15 14 14 15 13 11 8 3 4 1 4 3 3 2 1 0 4 9 9 9 10 9 9 9 8 8 7 5 3 4 5 6 5 5 5 5 5 6 7 7 5 5 5 5 7 9 9 9 9 10 9 9 8 6 7 8 8 8 7 9 10 11 11 10 10 9
21 15 19 20 15 13 16 18 16 16 17 16 17 18 18 18 17 16 16 15 15 15 16 16 13 9 6 4 2 3 4 4 2 1 2 4 10 9 8 10 12 12 10 8 8 8 6 4 4 5 5 5 5 6 6 6 7 7 7 5 5 6 6 8 10 12 12 12 12 12 11 11 10 10 10 9 9 10 11 12 12 12 12 11 11
22 17 19 20 17 14 15 18 18 16 16 17 17 17 18 19 18 17 17 16 15 15 15 14 14 10 6 6 4 3 3 3 2 1 4 3 9 8 7 11 13 13 11 9 7 7 8 6 5 6 6 6 6 7 8 9 9 9 7 6 7 8 8 10 12 14 14 14 14 14 14 14 13 13 13 12 12 12 12 12 13 13 13 13 12
22 19 18 20 19 18 17 19 19 18 17 17 17 17 18 18 18 18 17 17 16 16 14 9 10 10 7 7 5 4 4 3 3 3 4 2 7 6 8 12 13 12 12 12 8 6 8 8 8 7 6 7 7 8 10 10 10 10 8 7 8 8 10 12 12 12 13 13 14 14 14 14 14 13 13 13 13 12 11 11 12 12 13 13 12
22 20 20 21 21 20 19 20 20 19 18 17 17 17 18 18 18 17 17 18 17 17 15 9 6 9 9 8 6 4 5 5 5 4 3 3 7 7 8 11 11 11 12 12 10 7 9 9 8 5 5 7 7 8 10 11 10 11 9 9 10 10 11 11 11 11 12 13 13 13 14 13 13 13 13 13 13 13 12 12 12 13 13 12 12
23 22 23 22 22 20 18 20 22 19 18 18 18 17 18 18 16 16 17 18 17 17 16 10 6 10 7 6 6 4 4 5 5 5 4 4 8 7 8 12 12 11 10 10 11 9 9 10 9 4 3 6 6 7 10 11 10 11 11 10 12 11 11 11 12 12 13 14 13 13 14 14 13 13 14 13 12 13 13 13 13 13 13 13 12
24 23 24 23 23 21 18 20 20 19 18 19 18 17 17 17 16 15 16 17 16 16 17 12 6 9 7 5 4 4 4 4 4 5 5 4 7 8 9 12 13 13 12 10 11 11 10 10 9 5 3 4 6 7 10 12 10 10 10 10 11 11 11 12 13 13 13 13 13 13 14 13 13 14 14 13 12 12 12 13 12 12 13 13 13
25 25 24 23 23 21 19 20 19 19 19 19 18 18 17 17 17 16 15 15 14 14 16 14 9 7 9 4 2 3 3 4 5 5 5 4 5 9 10 11 11 11 11 10 11 11 10 10 9 7 5 4 6 7 8 11 10 8 8 9 11 11 11 12 12 13 13 13 13 13 13 13 13 13 13 13 12 12 12 12 12 12 12 12 13
25 24 24 23 23 21 19 21 22 20 20 19 19 19 18 16 17 17 15 13 12 14 15 15 13 7 5 2 2 3 2 4 7 5 5 3 4 7 8 10 10 9 10 9 10 12 11 11 10 9 6 5 6 7 9 10 9 8 8 9 10 10 10 10 10 11 11 12 13 14 13 12 12 12 12 12 12 13 12 12 12 12 12 12 12
24 24 24 23 23 21 19 21 23 21 20 20 19 19 19 17 16 16 15 14 13 13 13 15 15 10 6 2 2 2 2 6 8 5 6 5 5 6 7 8 9 8 8 8 10 13 12 10 9 8 7 6 6 5 8 10 9 9 9 9 9 8 9 9 9 10 10 11 12 13 13 12 12 12 12 12 12 12 12 12 12 12 12 12 12
25 24 24 23 23 22 20 21 23 23 20 19 19 19 19 17 17 17 17 17 15 12 10 13 15 13 11 8 4 2 1 7 7 3 5 7 7 7 7 8 8 8 8 8 10 12 11 10 9 8 8 7 4 3 5 7 8 9 8 9 9 8 8 8 8 9 11 11 11 12 12 11 11 11 11 11 12 12 12 12 12 12 13 13 13
25 25 24 24 24 23 22 22 22 22 21 19 19 19 18 17 18 18 19 18 17 14 9 11 13 13 14 13 10 7 5 4 5 3 4 5 7 9 8 9 8 8 8 9 10 12 12 10 8 8 8 6 4 3 5 6 5 6 5 6 9 9 8 7 7 8 9 10 10 10 10 10 11 11 10 10 11 12 12 13 13 13 13 13 13
25 25 24 24 25 24 23 22 20 21 22 21 19 18 17 17 17 16 17 18 18 17 13 12 13 12 13 13 12 11 10 9 8 4 2 3 6 8 9 9 10 9 8 9 10 12 12 10 8 9 9 7 4 4 8 7 4 2 3 2 7 8 8 8 7 7 7 7 8 9 9 10 9 10 10 10 11 12 12 14 14 14 13 13 12
25 24 25 25 24 24 23 22 21 21 21 20 20 18 17 17 17 16 15 15 17 17 16 14 14 14 13 13 12 12 12 12 13 10 6 4 4 5 7 8 8 10 10 8 9 12 12 10 8 8 9 8 5 6 11 10 5 2 4 1 6 7 7 8 7 7 7 6 7 7 8 8 9 9 10 10 11 12 13 13 14 14 13 12 12
25 24 25 24 24 24 23 23 23 21 20 19 19 18 16 16 17 16 16 15 14 15 15 13 14 15 15 14 13 12 11 10 12 13 9 6 4 4 9 10 7 9 11 10 9 10 10 10 8 7 7 7 6 8 12 9 6 2 4 3 4 6 7 8 8 8 7 7 7 6 6 7 7 8 9 10 10 11 12 12 13 13 13 12 11
25 25 25 24 23 24 24 24 23 21 20 19 18 17 17 17 17 16 16 15 15 14 14 13 13 15 16 16 14 13 12 11 12 15 11 7 5 4 9 13 11 11 13 13 12 11 9 9 9 8 7 6 8 11 12 9 6 3 3 3 2 5 7 8 8 7 6 5 5 5 5 4 5 6 7 9 9 10 10 11 12 12 13 12 11
24 26 25 24 23 24 24 23 22 21 20 19 18 17 16 16 16 16 15 16 16 15 15 14 14 16 18 17 16 15 15 14 13 14 14 11 6 3 8 13 11 11 14 15 13 12 12 10 10 10 8 7 9 11 10 7 4 2 1 3 4 5 5 6 6 6 5 3 3 3 4 3 3 3 5 6 8 9 9 10 11 11 12 12 12
25 26 26 25 23 23 25 23 22 21 20 19 18 16 15 15 15 16 16 15 16 17 18 17 16 17 19 19 19 18 17 16 14 12 14 12 8 4 5 11 9 11 14 14 12 12 12 11 11 11 10 10 11 11 9 6 3 3 2 2 5 5 5 4 4 4 3 3 2 3 4 3 2 2 3 4 6 8 9 8 9 10 11 12 12
25 25 26 26 24 23 24 23 21 20 20 19 18 16 15 14 14 14 15 16 16 18 19 19 18 18 19 20 20 21 20 18 16 17 17 12 10 7 3 5 9 12 13 14 14 12 10 11 12 11 11 12 12 11 9 6 4 5 4 2 4 6 5 4 4 4 4 4 4 4 4 3 3 3 2 2 5 8 8 7 8 9 10 11 11
24 25 24 24 24 23 23 22 20 19 19 19 18 16 15 15 14 13 14 15 16 18 20 20 20 19 20 20 20 20 19 18 18 18 19 14 11 10 5 3 5 7 8 11 14 13 13 14 13 13 12 11 14 13 9 6 5 5 4 3 4 5 4 3 4 4 4 4 3 3 3 3 3 3 2 2 3 6 7 6 6 8 9 10 10
23 23 22 23 24 23 22 21 20 19 19 18 18 16 15 15 15 14 14 14 14 15 17 18 19 19 20 20 20 20 18 19 20 18 18 17 13 11 8 5 4 3 3 6 8 10 16 18 16 15 12 12 15 14 9 7 4 4 5 4 5 5 4 4 3 3 4 4 2 2 3 3 4 4 2 2 3 4 6 5 5 7 8 8 9
22 22 22 23 24 23 21 20 20 19 18 18 18 17 15 15 15 15 15 15 14 13 14 15 17 19 19 19 18 19 18 18 19 16 15 16 15 12 9 7 6 4 3 4 5 8 16 20 18 18 17 17 17 14 13 10 6 6 6 6 7 7 7 7 5 3 2 5 3 2 2 3 4 5 3 3 3 3 5 4 4 6 6 7 8
21 21 21 21 23 22 20 19 19 19 18 17 17 16 14 14 15 15 15 15 15 14 13 11 12 16 18 17 16 18 17 15 15 14 14 17 16 13 9 7 8 8 4 3 4 7 15 18 16 18 22 23 20 16 14 10 8 7 5 6 9 10 10 10 7 4 1 4 3 1 1 2 3 4 4 3 3 4 4 3 4 6 5 5 7
20 20 21 20 21 20 19 18 18 18 17 16 15 14 14 14 14 14 15 15 15 16 14 9 8 12 15 14 15 18 18 13 11 13 14 17 16 14 11 8 7 7 4 1 1 4 13 18 14 16 23 25 21 18 14 9 8 8 6 8 10 10 10 12 9 6 4 3 3 2 1 2 3 4 5 4 4 4 3 4 6 6 4 4 6
19 20 21 20 19 19 19 17 17 16 16 15 14 14 14 14 14 14 14 14 14 15 14 10 9 13 15 14 15 17 17 13 11 13 15 15 15 13 11 9 5 4 3 3 3 2 9 13 10 14 23 24 19 16 13 10 10 9 8 9 10 10 9 11 8 6 6 6 6 4 2 2 3 4 5 5 5 4 5 6 7 5 3 4 5
20 20 20 19 19 19 18 17 16 15 15 15 14 14 14 14 14 14 13 14 13 13 13 8 5 9 15 17 17 14 12 13 13 15 17 15 15 13 12 10 6 4 4 4 3 0 3 3 6 15 23 21 17 15 14 14 13 11 10 9 10 9 8 9 8 8 9 9 6 4 2 2 3 4 6 7 6 7 7 7 6 4 3 4 4
22 20 20 19 18 18 17 16 15 14 14 15 15 15 14 14 14 14 14 14 13 13 14 9 4 6 10 14 15 13 12 15 17 18 16 13 12 12 11 10 8 5 6 5 2 1 2 1 9 19 22 17 16 15 15 15 12 11 11 9 8 7 7 8 7 8 10 10 7 4 2 2 3 5 8 8 6 6 7 5 4 3 3 4 4
21 20 19 19 19 18 17 16 15 14 14 15 16 16 15 14 14 14 14 14 13 13 11 8 7 9 10 9 11 12 14 18 18 15 12 9 9 8 9 11 9 7 7 7 5 4 5 5 8 17 20 17 15 14 12 10 7 8 11 11 7 4 6 9 10 8 8 10 7 3 1 3 4 6 8 7 4 4 5 4 1 2 3 4 5
20 20 18 18 18 18 17 16 15 15 15 15 15 15 14 14 13 13 13 13 13 12 10 7 6 7 9 9 11 12 15 16 13 10 9 10 8 6 7 9 9 8 7 7 7 6 6 7 8 10 15 15 12 10 8 6 6 7 9 9 6 4 6 9 9 5 7 7 3 3 4 3 4 6 6 3 1 3 4 3 1 2 3 5 5
19 18 17 17 17 16 16 15 15 15 15 14 14 14 14 13 12 11 11 10 10 9 8 8 6 5 7 11 13 13 13 13 11 9 8 8 7 5 5 7 8 7 6 4 5 5 4 4 7 7 9 10 7 5 5 7 10 9 6 5 4 5 5 5 4 2 3 4 5 5 3 2 4 5 4 2 2 3 4 3 2 2 3 4 4
19 18 18 17 16 15 15 15 15 14 14 14 14 13 13 12 11 10 8 7 6 6 6 6 4 6 9 11 13 14 14 13 12 10 9 8 8 7 7 6 5 6 7 5 5 5 4 4 7 8 8 7 5 6 7 10 11 9 7 8 8 8 6 4 5 6 7 9 8 4 1 1 4 4 3 2 2 3 3 3 3 3 3 3 3
20 19 18 16 14 13 14 14 15 14 14 14 13 11 11 10 9 8 6 4 4 4 6 6 5 7 10 11 12 14 15 13 11 11 12 11 10 10 10 8 6 7 7 6 5 5 4 4 6 9 10 8 8 8 6 6 7 6 5 7 8 11 11 10 10 12 13 12 8 5 2 1 2 2 1 0 2 2 3 2 2 2 1 2 2
20 19 18 15 14 13 13 14 15 14 13 13 12 11 10 9 8 6 3 3 5 6 7 8 9 11 12 12 12 14 14 12 12 13 14 13 12 12 11 9 9 8 7 6 6 5 6 6 6 6 10 10 9 9 6 3 4 3 3 7 9 9 13 15 14 12 12 12 8 6 5 2 1 1 3 4 5 5 6 5 3 3 1 2 2
17 17 16 14 13 13 13 14 14 14 13 12 12 12 11 9 9 7 5 5 6 7 8 11 13 13 13 12 12 12 12 12 13 13 13 12 12 13 12 10 8 9 9 8 8 7 8 11 10 7 10 10 9 12 10 7 5 3 4 10 13 10 8 10 14 12 10 10 9 7 6 5 5 5 6 7 6 7 8 7 5 3 1 0 1
14 16 14 13 14 14 14 14 14 13 13 11 11 11 10 9 9 8 7 6 5 7 10 12 13 13 11 11 11 11 12 12 12 12 12 13 12 11 11 9 7 9 8 8 9 8 8 10 9 6 8 8 8 12 12 10 10 8 6 6 6 5 8 5 9 11 9 6 5 5 7 9 8 8 11 11 9 9 10 8 6 4 3 3 2
17 17 14 13 14 14 14 14 13 13 13 11 10 10 9 8 8 7 6 5 5 8 11 11 13 13 11 10 12 12 13 13 12 12 12 11 11 10 10 8 7 6 3 3 6 5 3 4 5 6 6 7 8 10 11 12 11 10 7 4 3 2 9 6 6 9 7 4 3 3 7 11 9 7 11 13 11 11 11 9 7 6 5 5 3
20 19 16 14 13 14 14 13 13 13 13 12 11 11 10 9 8 6 6 7 8 10 11 11 14 14 11 11 13 13 12 13 12 12 11 9 8 8 7 7 6 4 2 3 4 3 3 3 2 1 4 7 8 7 10 14 13 10 8 4 1 2 7 5 5 10 8 6 4 3 4 9 8 5 5 10 12 12 9 8 9 8 8 6 2
18 17 15 13 12 15 14 14 13 14 13 13 13 12 10 11 11 7 7 10 11 11 13 14 14 14 12 12 13 12 12 12 11 11 10 7 7 6 6 5 4 4 4 2 2 3 4 5 7 8 7 3 5 6 5 13 14 11 8 5 3 4 5 2 9 10 6 5 4 2 1 4 6 4 4 3 7 11 10 11 12 11 10 6 1
16 14 13 12 14 16 15 14 14 14 14 13 13 11 8 11 13 11 10 12 12 12 14 15 14 14 13 13 13 11 11 11 10 10 10 8 7 6 4 4 3 3 4 4 3 1 1 4 6 9 11 9 12 13 10 11 12 11 8 5 5 6 4 6 10 7 4 3 2 1 4 5 3 4 7 9 6 2 7 13 15 15 12 6 5
16 14 13 14 17 18 16 15 15 15 14 12 9 7 7 13 16 14 13 13 13 13 14 15 14 13 12 12 11 9 9 10 10 9 9 8 7 6 6 6 6 4 2 2 2 2 1 5 7 9 10 10 9 11 11 10 10 9 7 6 7 6 5 8 8 5 5 4 2 1 5 9 9 8 10 11 11 9 8 8 10 13 13 9 7
16 14 14 16 19 19 16 15 15 14 12 9 6 6 13 19 18 15 14 14 14 14 14 14 14 12 11 10 10 9 9 9 10 8 8 8 8 8 8 8 8 6 3 3 2 1 2 5 7 8 9 9 7 7 7 6 6 7 6 6 6 5 4 6 7 6 6 6 5 5 7 10 11 11 12 12 12 12 12 12 9 7 10 9 7
16 14 16 19 19 18 16 15 14 14 11 7 5 11 20 21 17 15 15 15 14 14 14 13 13 12 10 9 10 12 11 10 11 9 9 10 9 9 10 11 10 7 5 4 3 2 2 3 5 6 6 6 5 4 3 3 4 6 7 6 5 3 2 2 6 8 9 8 8 8 8 10 12 12 12 12 12 12 11 11 11 8 7 10 7
17 17 20 20 18 17 17 15 13 13 10 7 9 18 24 21 17 15 15 16 15 14 13 13 13 13 10 8 10 12 11 10 9 9 10 12 9 9 13 14 12 8 5 4 3 3 3 3 4 4 4 3 3 4 4 4 4 5 8 8 7 6 7 6 9 10 9 10 10 10 8 9 12 12 12 13 12 11 13 12 11 10 9 9 7
19 21 21 19 18 17 17 15 13 12 10 8 14 23 25 20 16 14 15 17 17 15 14 13 13 13 11 9 9 9 8 7 7 9 13 13 8 8 12 13 12 10 6 5 5 5 5 6 6 7 7 7 6 7 7 7 7 7 8 9 9 9 10 10 10 9 6 8 11 11 8 9 11 11 12 12 9 10 15 16 13 12 12 12 8
Wind_Direction
189 188 193 203 205 201 201 205 207 214 220 219 215 216 216 223 224 220 222 233 247 252 246 263 277 247 239 260 144 108 99 61 52 40 60 107 231 248 19 352 47 123 155 150 133 126 112 87 74 63 58 59 76 81 76 75 64 54 42 29 19 14 13 9 9 10 12 14 16 15 14 19 16 17 19 20 25 30 36 37 32 31 31 28 26
191 190 192 204 207 202 203 206 207 212 215 210 215 219 215 222 226 218 222 229 235 252 253 251 277 270 257 251 110 98 78 67 54 19 37 129 195 213 99 25 110 150 156 145 137 129 117 92 77 62 53 64 84 83 83 76 54 44 33 24 20 16 14 16 21 23 26 31 33 31 29 34 35 33 31 33 35 36 45 47 40 34 35 39 36
193 191 192 205 209 203 202 205 205 211 218 209 214 224 217 219 224 218 225 232 231 243 252 244 265 285 294 351 111 98 81 80 57 45 31 160 191 185 106 140 143 157 153 142 142 134 119 94 81 66 59 70 86 82 81 70 45 37 26 21 20 19 21 31 38 36 42 48 46 45 46 47 47 45 42 42 41 38 43 44 35 28 29 33 28
194 190 194 208 210 202 203 206 203 208 221 216 217 227 220 218 223 220 225 238 245 249 248 241 255 286 311 20 95 94 83 57 58 71 42 166 178 138 117 147 153 155 148 145 146 137 120 98 86 74 72 80 84 80 74 60 41 34 29 25 21 23 33 46 50 46 51 52 47 45 43 41 39 38 36 35 32 27 28 28 27 27 27 25 16
193 193 198 205 206 204 209 210 205 209 219 219 224 227 220 221 223 220 224 235 245 251 249 249 260 268 267 36 82 82 73 53 70 77 38 109 153 128 128 154 154 148 144 146 145 135 121 102 91 82 87 90 82 76 70 57 37 34 42 38 22 28 42 50 49 47 45 37 30 25 21 25 24 18 11 8 5 359 1 4 8 6 3 3 359
198 202 201 202 204 204 207 207 206 213 218 220 228 228 218 223 223 220 223 228 238 243 246 247 257 263 227 168 57 67 71 3 22 67 38 113 146 127 130 150 153 151 149 148 143 138 128 108 97 96 102 99 89 80 70 48 25 33 51 45 25 38 49 53 52 37 27 23 18 13 12 20 18 7 358 355 355 354 357 1 1 355 350 349 346
204 210 204 202 203 201 203 202 205 215 219 221 225 224 220 225 222 220 221 222 230 237 241 238 243 256 133 113 123 103 98 307 308 91 48 149 147 131 136 150 154 157 155 153 148 145 141 123 117 120 117 109 96 77 58 41 28 38 54 45 34 57 66 62 53 26 17 18 14 10 12 23 16 355 350 360 7 4 2 360 356 352 348 346 342
203 212 208 205 204 203 206 206 209 214 216 221 225 223 223 227 225 223 223 221 224 233 236 230 233 245 183 115 161 151 160 263 249 145 116 152 147 140 143 147 147 153 155 160 158 155 156 148 143 131 117 102 82 62 51 48 40 44 59 58 49 69 74 54 40 31 27 20 18 16 17 27 24 10 9 23 34 20 9 10 9 6 5 5 7
199 210 209 207 208 206 204 207 212 212 211 217 224 223 223 227 228 224 225 226 223 228 234 223 216 222 198 150 150 172 206 243 205 150 283 175 150 144 148 149 152 157 162 169 172 169 167 155 143 123 97 84 64 50 47 45 41 47 65 77 72 78 69 45 37 37 37 34 37 40 41 46 49 46 49 56 54 43 35 37 37 33 34 38 42
199 205 202 203 207 204 201 207 212 213 212 216 221 224 227 229 226 221 224 232 232 235 242 224 201 195 172 154 159 178 212 227 173 197 278 184 145 144 154 155 159 164 164 168 174 171 165 155 141 122 93 79 60 48 44 45 55 63 77 89 84 79 56 44 45 47 50 54 56 57 56 58 60 60 62 62 58 55 52 49 47 44 44 44 44
197 202 199 201 202 202 206 207 207 209 210 215 220 223 229 230 222 219 222 228 236 242 254 245 197 176 151 148 156 173 182 195 207 232 274 177 144 148 158 159 163 166 166 168 171 158 150 146 138 124 101 82 60 50 44 48 69 78 86 91 88 74 52 50 51 52 59 63 61 61 61 61 61 60 60 59 56 53 49 44 47 48 46 44 42
193 195 196 201 202 206 210 201 197 204 206 211 219 219 226 230 219 216 221 226 232 237 250 258 186 151 142 152 164 182 189 205 215 206 245 206 161 159 169 170 169 166 165 168 170 155 139 140 146 137 115 100 70 47 43 51 77 89 91 93 91 75 56 57 54 52 61 64 63 62 61 60 59 58 57 56 54 51 48 44 48 50 47 44 42
192 192 194 199 204 211 210 194 191 200 207 212 219 219 222 227 219 214 220 225 229 231 241 244 170 136 134 155 167 186 193 201 210 198 222 206 167 171 182 179 174 160 152 160 165 164 151 152 171 183 145 123 86 53 48 57 80 95 98 95 92 81 63 63 62 62 68 66 64 62 61 60 57 57 55 54 53 51 50 46 48 51 48 45 42
192 192 196 200 205 212 206 190 189 199 209 214 218 222 223 222 216 217 222 226 228 227 234 238 189 147 147 152 160 185 190 194 210 198 209 207 168 176 177 173 173 155 146 152 154 162 158 153 167 171 163 147 106 77 62 65 77 93 104 99 92 90 81 81 78 74 74 69 66 62 60 59 56 57 54 51 51 50 51 49 47 48 47 46 45
193 195 199 202 205 211 204 191 191 199 208 212 215 221 225 219 213 218 225 229 231 230 233 236 225 171 155 163 172 169 188 205 208 194 203 220 172 174 173 168 169 153 148 154 152 160 157 141 141 133 139 154 126 103 73 71 76 81 103 107 99 98 94 93 88 79 75 73 71 66 61 57 55 55 53 50 49 49 49 48 47 46 47 45 44
194 197 199 202 207 210 204 195 197 203 208 211 213 218 224 222 215 217 222 225 228 232 233 228 227 205 154 171 186 169 223 193 181 181 190 209 170 179 186 177 176 166 160 163 158 157 151 143 140 129 126 134 126 103 75 77 83 81 100 110 107 107 101 94 87 79 74 72 73 70 62 57 56 54 53 50 49 49 47 46 47 46 46 45 44
194 198 199 203 206 209 206 197 200 205 208 210 212 217 220 220 218 219 222 227 226 226 223 213 219 221 193 200 168 187 245 161 159 176 186 196 187 188 199 186 185 187 177 171 160 152 148 149 142 119 111 126 136 106 78 89 103 107 116 119 115 112 103 94 88 85 81 77 74 69 61 58 58 56 54 51 49 50 47 46 47 47 47 46 45
196 198 199 201 205 208 207 202 202 206 208 210 212 217 219 216 217 218 219 228 233 231 216 201 214 224 217 229 237 239 235 150 154 166 181 198 196 188 200 196 195 196 186 176 161 157 158 154 141 129 130 141 153 135 109 119 126 127 130 136 134 124 111 100 92 91 87 81 76 68 60 58 58 57 54 51 51 51 49 49 49 51 49 45 45
199 199 199 200 203 206 207 206 205 207 208 210 212 218 221 220 221 216 213 221 230 237 226 196 205 219 220 232 241 244 257 198 180 160 163 201 203 198 207 209 210 208 196 184 166 160 160 149 145 152 155 161 169 167 155 145 142 132 115 140 151 142 137 126 109 98 87 80 78 71 64 60 56 55 55 52 52 52 50 49 47 51 52 45 44
201 200 199 200 202 204 208 208 206 205 207 210 214 217 218 221 229 225 216 216 221 229 229 207 204 213 216 228 237 236 244 244 233 218 183 191 191 198 208 209 216 217 205 194 177 169 161 145 150 160 155 155 157 171 168 153 152 138 75 143 175 166 164 154 134 118 97 84 81 73 66 63 57 53 54 54 53 52 49 47 44 47 51 47 45
203 202 200 201 203 203 207 209 207 204 204 208 213 218 218 219 227 233 228 221 217 221 226 220 216 214 209 216 227 232 236 240 239 237 236 221 182 178 188 195 215 219 208 199 183 175 168 158 161 164 156 155 148 156 163 154 155 150 50 75 195 195 192 178 160 141 116 102 92 77 67 63 58 52 52 52 52 50 47 46 45 44 47 48 46
202 202 202 204 204 203 206 208 209 206 202 206 212 216 220 219 222 231 234 228 220 219 224 226 223 214 209 211 213 220 227 231 229 228 231 235 217 179 175 179 194 207 203 193 175 168 171 174 173 166 160 162 169 178 178 172 179 187 34 33 196 192 187 182 172 158 133 109 96 81 69 65 57 50 48 48 49 47 45 45 45 44 43 44 45
199 201 206 206 204 203 206 208 209 209 205 207 212 214 218 221 223 227 231 229 226 226 227 230 225 214 213 216 216 221 226 225 221 215 216 223 219 182 171 181 185 184 188 184 174 169 175 184 186 183 177 173 183 191 194 196 197 210 7 24 171 175 179 187 180 172 159 132 115 96 79 66 55 45 40 43 45 44 42 41 42 42 41 40 40
198 203 208 208 206 204 206 208 208 208 207 208 212 215 217 220 223 225 227 226 227 227 225 228 228 223 224 220 218 229 237 244 245 225 214 214 214 189 170 185 184 171 178 180 180 185 186 191 196 194 190 185 188 189 190 201 202 195 16 67 128 152 168 187 189 189 194 182 155 126 103 74 53 42 31 33 35 37 37 35 37 38 38 38 36
199 205 208 208 208 205 205 208 207 207 208 210 212 214 216 217 221 223 224 226 226 226 225 224 221 225 232 227 221 228 236 254 280 270 240 219 206 227 192 182 166 150 169 176 176 186 193 198 201 200 199 194 196 199 195 207 223 207 208 99 118 133 137 155 166 163 160 143 109 94 92 74 44 28 24 16 5 14 26 27 29 33 32 33 34
202 206 208 208 208 206 206 206 207 208 209 210 212 213 214 215 219 221 223 226 227 227 227 227 222 220 229 232 232 236 234 242 262 266 258 233 198 221 229 156 142 144 165 178 172 174 186 196 203 208 209 200 197 197 191 199 223 223 223 169 135 137 122 124 133 121 107 94 74 60 56 47 26 6 29 40 344 347 10 21 20 27 28 25 29
204 207 207 206 206 205 205 205 206 208 210 212 213 214 215 214 217 221 221 223 227 229 229 233 231 223 223 227 232 238 236 236 240 240 248 244 212 211 208 140 137 148 170 182 174 175 177 179 195 209 213 210 196 184 178 187 206 222 228 202 170 164 148 135 126 102 83 73 61 46 28 18 7 347 11 54 345 332 358 15 12 19 22 17 22
204 206 204 202 203 203 204 206 206 207 211 212 212 213 214 215 217 219 220 221 225 232 233 237 237 232 231 229 230 235 232 232 232 225 234 238 221 213 215 196 185 171 179 187 179 184 179 171 182 200 207 204 189 183 194 201 204 233 237 218 198 200 205 183 149 101 65 49 37 23 9 357 351 345 336 350 336 330 349 359 1 7 12 12 18
200 201 199 199 201 202 203 206 208 209 210 212 214 214 213 216 221 222 224 225 225 232 237 240 243 241 238 233 232 237 236 232 229 221 231 234 216 212 228 230 224 209 190 202 196 183 177 172 175 186 192 196 192 195 206 206 214 235 227 215 218 231 239 223 196 170 52 29 16 4 1 348 344 347 328 298 301 314 325 330 339 347 355 5 16
196 194 195 197 199 201 203 205 208 209 210 213 215 214 213 218 226 229 232 231 228 231 234 242 254 251 243 239 241 246 244 239 230 221 233 237 219 211 227 246 252 244 232 225 205 178 170 170 177 183 184 191 196 195 196 199 212 224 216 211 227 246 247 234 220 208 274 2 356 326 329 325 333 339 327 293 275 288 301 299 314 329 344 3 12
190 189 190 194 197 199 201 202 206 208 209 212 212 212 217 223 229 235 240 241 237 236 235 239 257 253 244 240 244 247 244 240 233 227 238 240 225 215 225 244 259 251 236 124 88 187 169 166 182 190 180 184 189 183 183 195 205 210 206 204 228 252 245 229 229 234 253 285 280 250 253 297 319 329 324 300 267 274 277 268 294 318 335 357 10
184 184 186 190 193 195 197 198 202 205 208 213 214 216 222 227 233 237 242 247 248 249 247 240 242 252 251 240 236 240 237 229 221 218 225 229 218 210 220 236 251 249 212 129 78 223 182 170 189 192 176 176 179 176 178 187 196 205 203 208 233 247 233 226 238 261 262 248 246 253 269 295 305 317 321 305 273 257 244 258 286 311 328 347 6
183 183 184 188 190 191 194 196 199 204 210 217 219 222 224 229 235 238 242 248 252 258 259 245 225 247 251 241 236 238 230 220 214 203 202 208 206 205 216 229 237 242 222 181 112 284 217 180 162 168 167 164 165 173 182 183 189 198 198 212 236 241 242 246 252 264 253 232 230 246 256 295 307 313 316 309 285 255 242 257 279 295 321 342 357
186 185 185 188 190 190 192 198 203 208 214 219 221 221 221 226 232 236 240 244 247 255 260 255 230 233 239 232 229 227 210 205 207 200 196 204 206 206 214 219 222 234 228 206 156 122 219 139 125 145 155 156 158 175 186 182 188 198 197 212 233 239 252 250 246 258 242 220 220 235 234 310 317 313 312 310 294 253 235 246 268 285 328 343 345
190 189 187 189 191 191 193 201 208 213 216 220 220 219 220 224 229 234 239 241 243 246 247 244 234 239 242 223 209 207 193 189 196 198 194 197 196 199 209 211 209 213 219 220 215 177 156 155 140 143 154 160 157 167 179 176 183 196 198 204 210 216 231 231 243 259 228 206 213 235 279 334 321 312 311 307 291 225 206 213 257 313 344 344 336
193 191 186 189 193 192 193 199 209 215 218 221 221 220 222 225 229 238 244 243 242 243 242 236 226 230 234 209 182 175 173 175 182 187 183 177 177 193 206 204 201 203 211 218 217 194 148 161 182 159 154 160 155 156 168 174 185 193 194 192 192 222 234 227 235 225 184 192 231 282 294 324 328 317 314 300 221 174 183 198 255 332 340 339 328
195 191 186 190 194 192 193 202 213 217 218 221 223 222 225 230 235 245 254 250 243 244 242 233 217 193 193 192 183 175 173 174 171 172 176 170 167 171 174 182 191 194 194 186 183 179 121 146 193 174 143 150 159 172 199 215 206 200 215 223 230 266 251 214 215 183 174 236 286 294 281 331 339 328 329 310 195 177 190 207 234 295 314 319 318
192 190 187 189 190 191 197 210 219 221 222 224 225 225 227 233 236 242 259 259 241 230 214 203 189 167 166 176 186 188 185 176 164 165 172 164 154 138 121 131 159 167 164 150 145 149 117 131 182 176 150 143 158 185 218 229 205 191 221 233 224 233 244 249 253 255 263 266 268 267 234 20 339 332 340 323 220 198 206 214 229 265 294 302 307
188 187 185 184 188 196 202 212 220 224 225 223 224 226 227 231 231 234 250 237 191 176 173 165 149 156 165 171 182 188 185 177 168 168 168 158 151 146 132 126 136 149 158 158 158 167 168 171 181 178 172 172 174 180 204 223 196 182 224 238 217 208 217 234 238 239 248 248 241 235 231 336 356 352 352 138 150 150 161 175 202 223 294 313 308
184 182 179 177 186 201 209 213 218 223 225 223 224 226 227 228 222 216 210 176 161 144 139 144 145 151 159 164 171 179 184 185 180 173 167 159 153 156 161 157 151 155 164 169 174 183 188 199 213 187 170 171 183 200 226 233 183 172 261 280 270 232 215 221 225 228 229 219 207 202 208 248 301 235 210 182 155 142 142 140 142 142 58 335 325
182 178 177 176 185 204 216 215 215 218 222 223 221 216 213 215 207 187 158 146 148 138 134 141 146 147 152 156 160 167 171 173 176 175 174 171 165 168 177 179 169 163 162 162 170 185 198 205 219 203 168 168 189 205 215 216 198 201 262 264 261 261 257 231 217 220 209 183 177 189 206 244 256 234 230 212 181 166 159 156 161 151 102 331 301
178 177 179 180 185 201 215 216 211 211 215 219 219 210 200 195 188 174 156 144 139 140 142 143 141 137 142 148 153 162 167 167 170 174 176 175 175 177 176 178 180 174 170 168 172 189 206 205 211 199 172 182 197 194 197 205 203 206 227 234 225 262 299 268 190 207 219 193 189 210 220 240 244 231 236 231 204 187 184 183 195 205 196 197 213
176 177 180 181 185 199 212 214 208 205 211 217 222 219 207 191 176 162 156 160 155 147 144 142 139 136 139 148 149 154 163 166 165 166 169 170 172 171 164 167 178 175 164 144 154 177 205 208 219 212 195 207 211 200 202 202 192 183 184 181 141 237 283 279 168 176 200 206 241 255 229 234 241 236 234 229 212 198 201 212 230 236 221 205 202
182 183 181 177 191 207 210 208 206 206 211 217 225 232 228 207 181 154 153 167 161 149 143 142 143 141 141 148 150 152 159 163 165 168 169 167 166 165 156 159 171 175 134 79 80 80 56 30 351 226 213 223 217 212 208 193 176 165 167 172 140 237 285 297 147 151 160 178 218 280 244 226 234 255 247 228 214 206 216 247 256 243 220 205 200
186 186 175 169 198 216 208 203 205 206 211 216 223 232 233 212 190 162 147 156 156 152 149 146 147 146 143 145 149 156 165 167 171 175 175 175 177 173 158 152 171 204 208 196 37 53 57 31 32 50 56 107 115 89 146 172 159 143 142 154 199 252 288 71 122 136 153 182 211 296 15 212 234 275 324 284 226 221 242 270 265 241 212 201 289
186 183 168 171 206 216 208 204 203 203 210 214 217 228 228 203 186 163 148 151 153 154 153 150 150 151 150 149 148 155 165 168 173 177 176 180 184 179 165 154 165 194 206 222 246 219 61 36 60 72 71 83 91 85 104 138 131 115 118 140 183 221 218 136 127 133 146 162 227 360 53 32 331 332 19 27 25 285 267 274 264 242 222 227 291
187 178 171 188 211 213 208 204 196 196 204 205 210 224 202 181 169 153 148 152 151 150 149 148 149 148 149 152 152 154 159 163 171 171 168 173 172 163 153 142 143 153 164 195 214 199 94 68 81 91 85 85 91 92 102 121 119 108 111 130 148 161 149 131 127 122 113 88 28 67 59 29 12 16 21 16 15 17 3 326 285 254 243 254 282
183 177 182 202 212 208 202 197 189 190 193 193 202 193 171 165 157 146 147 149 145 144 144 144 145 146 151 159 161 162 160 165 174 168 157 162 162 159 155 142 141 151 138 114 123 132 105 80 78 84 83 79 84 88 95 116 126 125 126 124 129 134 133 149 146 111 76 48 35 58 60 35 18 13 7 354 347 354 5 11 357 301 261 263 281
177 184 196 205 207 200 193 190 189 190 186 185 193 175 164 159 150 142 145 145 141 141 142 143 147 153 164 174 174 171 166 171 181 176 164 163 161 163 159 138 126 129 116 100 103 89 81 74 66 69 67 59 65 71 79 103 117 130 126 105 100 111 76 147 145 103 64 45 41 48 51 35 20 13 7 359 354 351 354 9 14 355 298 281 280
180 194 198 200 198 192 186 186 193 194 187 188 186 171 162 156 145 140 146 146 143 144 146 148 154 162 169 170 168 167 165 171 182 183 177 171 167 176 169 140 114 110 114 116 117 92 72 63 54 57 55 51 68 81 95 103 99 115 112 92 94 106 70 71 125 114 70 48 40 36 39 29 19 16 7 359 358 3 9 14 18 12 349 320 292
194 198 192 190 187 183 182 187 198 196 184 183 179 168 161 156 145 140 148 152 151 153 154 153 158 164 162 153 154 156 159 173 182 178 181 181 180 187 176 146 118 115 125 133 130 115 102 94 86 86 84 82 92 100 101 99 89 93 102 94 95 100 76 71 108 122 82 45 32 28 35 28 15 12 11 5 353 354 7 11 8 6 8 5 346